Regional Weather Roundup
Issued by NWS Wilmington, NC

Home | Current Version | Previous Version | Text Only | Print | Product List | Glossary On
Versions: 1 2 3 4 5 6 7 8 9 10 11 12 13 14 15 16 17 18 19 20 21 22 23 24 25 26 27 28
000
ASUS42 KILM 260013
RWRILM
RWRILM
REGIONAL HOURLY WEATHER ROUNDUP
NATIONAL WEATHER SERVICE WILMINGTON NC
800 PM EDT THU AUG 25 2016

NOTE: "FAIR" INDICATES FEW OR NO CLOUDS BELOW 12,000 FEET WITH NO
SIGNIFICANT WEATHER AND/OR OBSTRUCTIONS TO VISIBILITY.

...............WFO WILMINGTON COUNTY WARNING AREA...............

......COASTAL NC AND SC COUNTIES......

CITY           SKY/WX    TMP DP  RH WIND       PRES   REMARKS
WILMINGTON     CLEAR     80  66  62 SE5       30.09R
N MYRTLE BEACH CLEAR     82  69  64 SE3       30.09R
MYRTLE BEACH   PTCLDY    82  64  54 SE12      30.09F

......INLAND NC AND SC COUNTIES.......

CITY           SKY/WX    TMP DP  RH WIND       PRES   REMARKS
LUMBERTON      CLEAR     81  70  69 S3        30.07R
ELIZABETHTOWN  CLEAR     83  71  67 S6        30.08S
WHITEVILLE     CLEAR     81  71  71 S5        30.08S
FLORENCE       CLEAR     86  68  54 SE6       30.07S
DARLINGTON     CLEAR     85  70  60 CALM      30.08R
KINGSTREE      FAIR      82  70  65 SE6       30.07S
HARTSVILLE     FAIR      82  68  61 CALM      30.07S
BENNETTSVILLE  FAIR      88  70  55 SE5       30.06S HX  92
CONWAY         FAIR      79  70  73 CALM      30.09S
GEORGETOWN     FAIR      79  70  73 SE3       30.09S
MARION         FAIR      81  72  74 SE3       30.07S

....................REST OF NORTH CAROLINA......................

.........EASTERN NC.........

CITY           SKY/WX    TMP DP  RH WIND       PRES   REMARKS
CAPE HATTERAS  CLEAR     76  68  76 CALM      30.11R
JACKSONVILLE   CLEAR     78  69  73 SE3       30.10R
MOREHEAD CITY  CLEAR     79  67  66 SE3       30.10R
KENANSVILLE    CLEAR     79  72  78 CALM      30.09R
NEW BERN       CLEAR     78  69  73 S6        30.10S
ELIZABETH CITY CLEAR     80  69  69 SE7       30.08S

.........CENTRAL NC.........

CITY           SKY/WX    TMP DP  RH WIND       PRES   REMARKS
RALEIGH DURHAM MOCLDY    84  68  58 S3        30.08R
ROCKY MOUNT    CLEAR     79  73  82 CALM      30.07S
ROANOKE RAPIDS NOT AVBL
FAYETTEVILLE   CLEAR     86  68  54 SE5       30.07R
HOFFMAN        NOT AVBL

.........WESTERN NC.........

CITY           SKY/WX    TMP DP  RH WIND       PRES   REMARKS
CHARLOTTE      MOCLDY    88  65  46 S6        30.09S HX  90
GREENSBORO     MOCLDY    82  72  71 NW5       30.09S
HICKORY        NOT AVBL
BOONE          NOT AVBL
ASHEVILLE      NOT AVBL

.....................REST OF SOUTH CAROLINA.....................

.........EASTERN SC.........

CITY           SKY/WX    TMP DP  RH WIND       PRES   REMARKS
CHARLESTON     PTCLDY    82  70  66 SE6       30.07S
BEAUFORT MCAS  CLEAR     83  72  69 E6        30.08R
HILTON HEAD    NOT AVBL

.........CENTRAL SC.........

CITY           SKY/WX    TMP DP  RH WIND       PRES   REMARKS
COLUMBIA       PTCLDY    88  67  49 SE8       30.05S HX  91
ORANGEBURG     CLEAR     85  65  51 SE5       30.07R
SUMTER SHAW    CLEAR     86  68  55 SE3       30.05S

.........WESTERN SC.........

CITY           SKY/WX    TMP DP  RH WIND       PRES   REMARKS
GREENVILLE     NOT AVBL
ROCK HILL      CLEAR     84  70  62 CALM      30.09S
ANDERSON       CLEAR     85  71  63 CALM      30.09S HX  90
CLEMSON        NOT AVBL
GREENWOOD      CLEAR     83  71  67 CALM      30.09S


...................COASTAL AND OFFSHORE REPORTS..................

................LOCAL PIERS AND NC RESERVE................


STATION/POSITION TIME  SKY/WX   TEMP    WIND        PRES    VSBY
                                AIR SEA DIR/SP/G
                 (UTC)          (F)     (DEG/KT/KT) (MB)    (MI)
JOHNY MRCER PIER 2300            83 85              1017.9F
NC RESRV MASNBRO NOT AVBL
OCEAN CREST PIER NOT AVBL
SPRINGMAID  PIER 2300            83 85              1018.6S


................COASTAL AND OFFSHORE BUOYS................


STATION/POSITION TIME  SKY/WX   TEMP    WIND        PRES    VSBY
                                AIR SEA DIR/SP/G
                 (UTC)          (F)     (DEG/KT/KT) (MB)    (MI)
DIMNDSHOAL 41025 2350            81 84  100/  4/  6 1019.5R
WVE H/P(F/S)=  3/ 9 SWL H/P/D(F/S/D)=  3/ 90/ 9

CAPE LOOKOUT     0000            81     120/  7/  8 1019.0R
ONSLOW BAY 41036 NOT AVBL
ONSLOW BAY 41064 2308            82 85  100/  4/ 10 1018.9R
ONSLOW BAY 41159 2325               84                N/A
WVE H/P(F/S)=  2/ 7

5SE WRITBC 41038 NOT AVBL
MASNBO INL 41110 NOT AVBL
WILM HARBR 41108 2326               85                N/A
WVE H/P(F/S)=  2/ 9

27SE WRITB 41037 2308            82 83  110/  6/  8 1018.9S
FRYING PAN 41013 2300            83 85   90/  8/ 10 1018.3F
SUNST NRSH 41024 2308            83 85  150/  6/ 10 1018.6R
CAPRS NRSH 41029 2308            83 85  110/ 10/ 12 1018.3F
EDISTO     41004 2350            83 84   70/ 12/ 14 1017.8R
WVE H/P(F/S)=  3/ 9 SWL H/P/D(F/S/D)=  3/ 80/ 9



..........OFFSHORE BUOYS BEYOND 100 NM OFFSHORE...........
.....IN A TRIANGLE---HAT TO BERMUDA TO BAHAMAS TO HAT.....


STATION/POSITION TIME  SKY/WX   TEMP    WIND        PRES    VSBY
                                AIR SEA DIR/SP/G
                 (UTC)          (F)     (DEG/KT/KT) (MB)    (MI)
150E HAT   41001 NOT AVBL
W BERMUDA  41048 2350            83 84   50/ 10/ 12 1016.1R
WVE H/P(F/S)=  4/ 8 SWL H/P/D(F/S/D)=  3/120/ 8

ATLANTIC S 41049 2350            84 85  130/  6/  8 1017.5R
WVE H/P(F/S)=  4/ 8 SWL H/P/D(F/S/D)=  5/120/ 8

E BAHAMAS  41046 2300            83 85  130/ 16/ 19 1014.5S
NE BAHAMAS 41047 2300            85 87  110/  4/  8 1014.9R
120E CANVRL41010 NOT AVBL

END




USA.gov is the U.S. government's official web portal to all federal, state and local government web resources and services.